TimeCDT,TemperatureF,Dew PointF,Humidity,Sea Level PressureIn,VisibilityMPH,Wind Direction,Wind SpeedMPH,Gust SpeedMPH,PrecipitationIn,Events,Conditions,WindDirDegrees,DateUTC
12:55 AM,66.0,64.9,96,29.81,10.0,Calm,Calm,-,N/A,,Clear,0,2013-09-01 05:55:00
1:55 AM,66.0,64.0,93,29.81,10.0,Calm,Calm,-,N/A,,Clear,0,2013-09-01 06:55:00
2:55 AM,68.0,66.0,93,29.81,8.0,East,3.5,-,N/A,,Clear,80,2013-09-01 07:55:00
3:45 AM,66.2,64.4,94,29.83,1.8,Calm,Calm,-,N/A,,Clear,0,2013-09-01 08:45:00
3:55 AM,66.9,66.0,97,29.81,0.8,ESE,3.5,-,N/A,,Clear,110,2013-09-01 08:55:00
4:02 AM,68.0,66.2,94,29.83,2.0,East,4.6,-,N/A,,Clear,90,2013-09-01 09:02:00
4:09 AM,69.8,66.2,88,29.83,6.0,East,3.5,-,N/A,,Clear,90,2013-09-01 09:09:00
4:55 AM,70.0,69.1,97,29.80,5.0,ESE,5.8,-,N/A,,Clear,110,2013-09-01 09:55:00
5:49 AM,68.0,66.2,94,29.84,1.8,Calm,Calm,-,N/A,,Clear,0,2013-09-01 10:49:00
5:55 AM,68.0,66.9,96,29.83,1.5,Calm,Calm,-,N/A,,Clear,0,2013-09-01 10:55:00
6:06 AM,69.8,68.0,94,29.86,2.5,North,3.5,-,N/A,,Clear,10,2013-09-01 11:06:00
6:55 AM,71.1,70.0,96,29.88,2.5,NW,4.6,-,N/A,,Partly Cloudy,310,2013-09-01 11:55:00
7:09 AM,71.6,69.8,94,29.93,3.0,NW,12.7,16.1,N/A,,Scattered Clouds,320,2013-09-01 12:09:00
7:23 AM,71.6,69.8,94,29.93,5.0,NNW,11.5,19.6,N/A,,Mostly Cloudy,330,2013-09-01 12:23:00
7:44 AM,71.6,66.2,83,29.90,10.0,NNW,8.1,-,N/A,,Scattered Clouds,340,2013-09-01 12:44:00
7:55 AM,71.1,64.9,81,29.86,10.0,North,5.8,-,N/A,,Partly Cloudy,350,2013-09-01 12:55:00
8:55 AM,70.0,66.0,87,29.81,10.0,SSW,8.1,-,0.00,Rain,Light Rain,210,2013-09-01 13:55:00
9:55 AM,73.9,66.9,79,29.85,10.0,NNW,5.8,-,0.00,,Clear,340,2013-09-01 14:55:00
10:55 AM,78.1,64.9,64,29.86,10.0,NW,6.9,-,N/A,,Clear,320,2013-09-01 15:55:00
11:55 AM,82.0,64.0,54,29.86,10.0,NNW,8.1,-,N/A,,Clear,330,2013-09-01 16:55:00
12:55 PM,82.9,64.0,53,29.86,10.0,Variable,3.5,-,N/A,,Clear,0,2013-09-01 17:55:00
1:55 PM,87.1,64.0,46,29.85,10.0,NW,8.1,-,N/A,,Clear,320,2013-09-01 18:55:00
2:55 PM,84.9,64.9,51,29.84,10.0,WNW,5.8,-,N/A,,Overcast,300,2013-09-01 19:55:00
3:55 PM,84.9,64.0,49,29.84,10.0,NW,9.2,-,N/A,,Overcast,320,2013-09-01 20:55:00
4:55 PM,84.9,64.0,49,29.84,10.0,NNW,11.5,-,N/A,,Overcast,330,2013-09-01 21:55:00
5:55 PM,84.9,62.1,46,29.84,10.0,NNW,8.1,-,N/A,,Partly Cloudy,330,2013-09-01 22:55:00
6:55 PM,82.0,57.0,42,29.85,10.0,NNW,9.2,-,N/A,,Clear,340,2013-09-01 23:55:00
7:55 PM,75.9,55.9,50,29.88,10.0,NNW,5.8,-,N/A,,Clear,340,2013-09-02 00:55:00
8:55 PM,72.0,55.9,57,29.90,10.0,NNW,4.6,-,N/A,,Clear,330,2013-09-02 01:55:00
9:55 PM,70.0,57.0,63,29.91,10.0,North,6.9,-,N/A,,Clear,350,2013-09-02 02:55:00
10:55 PM,69.1,57.0,65,29.93,10.0,NNW,5.8,-,N/A,,Clear,340,2013-09-02 03:55:00
11:55 PM,68.0,57.9,70,29.93,10.0,NNW,5.8,-,N/A,,Clear,340,2013-09-02 04:55:00